Naples Municipal Airport
KAPF : now visible

Airfield :











YOU CAN JOIN US ON...

 
LOGIN :

Register | Disclaimer

   EN    FR    IT 

 









Legend :    VFR   Marginal VFR   IFR   Intensive IFR   Very Intensive IFR
Visi :
Ceiling :
>= 8 km
>= 3000ft
5 to 8 km
1000 to 3000 ft
1500m to 5 km
500 to 1000 ft
800 to 1500m
200 to 500 ft
< 800m
< 200 ft
Symbols :   Thunderstorms  Fog  Heavy snow  Heavy precipitations  Wind > 20 kt






- Airport Elevation : 8 ft


KAPF - Naples Municipal

CURRENT METAR :
  • 192253Z 32006KT 10SM CLR 23/14 A2998 RMK AO2 SLP150 T02280144

EXPIRED METARs :
  • 192153Z 32008KT 10SM CLR 24/14 A2996 RMK AO2 SLP144 T02390144
  • 192053Z 32009G16KT 10SM FEW032 24/15 A2994 RMK AO2 SLP136 T02440150 53002
  • 191953Z 31007KT 10SM FEW044 26/16 A2992 RMK AO2 SLP132 T02560161

TAF KAPF
Valid from the 19 at 21:00 until the 20 at 18:00 UTC


192058Z 1921/2018 30012KT P6SM FEW030
FM200200 VRB04KT P6SM FEW030
FM201500 35008KT P6SM SKC



MET'MAP, your aeronautical weather chart ! - Copyright ORBIFLY December 2007 - Disclaimer

ORBIFLY MET'MAP TEAM :

Programming & Development : Alexandra Zaïnal
Concept & Development : Baudouin d'Aumeries
Co-Development & Prog : Marc-Olivier Méhu
Technical & hardware support : Manuel Goepfert

Contact : metmap@orbifly.com




SOURCES & CREDITS :

   NOAA       Earth
Advisory